This demonstration page uses our WeatherBlox Daily Observations layout. Learn more.

Left ArrowRight Arrow

Hourly Observations for September 21, 2018

Temp ( °F °C ) Dew Point ( °F °C ) Humidity (%) Winds ( mph kmh ) Pressure ( in mb ) Visibility ( mi km ) Precip ( " mm )
12:05 am 00:05 Cloudy 69 20.6 66 18.9 90 90 NNW 6 9 29.88 1012 10 16 N/A
12:52 am 00:52 Mostly Cloudy 66 19 61 16 83 83 NNW 18 30 29.94 1014 10 16 N/A
12:54 am 00:54 Mostly Cloudy 66 18.9 60 15.6 81 81 NNW 17 28 29.92 1013 10 16 N/A
1:04 am 01:04 Mostly Cloudy 65 18.3 58 14.4 78 78 NW 17 28 29.94 1014 10 16 N/A
1:29 am 01:29 Partly Cloudy 63 17.2 57 13.9 81 81 NNW 13 20 29.97 1015 10 16 N/A
1:54 am 01:54 Clear 62 16.7 57 13.9 84 84 NW 8 13 29.95 1014 10 16 N/A
2:54 am 02:54 Clear 61 16.1 55 12.8 81 81 WNW 6 9 29.98 1015 10 16 N/A
3:54 am 03:54 Clear 60 15.6 54 12.2 80 80 WNW 8 13 30.01 1016 10 16 N/A
4:54 am 04:54 Clear 59 15 54 12.2 83 83 WNW 6 9 30.04 1017 10 16 N/A
5:54 am 05:54 Clear 59 15 53 11.7 81 81 WNW 9 15 30.07 1018 10 16 N/A
6:54 am 06:54 Clear 59 15 50 10 72 72 NW 14 22 30.11 1020 10 16 N/A
7:54 am 07:54 Sunny 58 14.4 49 9.4 72 72 NW 16 26 30.16 1021 10 16 N/A
8:54 am 08:54 Sunny 58 14.4 48 8.9 70 70 NNW 15 24 30.18 1022 10 16 N/A
9:54 am 09:54 Sunny 59 15 48 8.9 67 67 NNW 14 22 30.20 1023 10 16 N/A
10:54 am 10:54 Sunny 62 16.7 47 8.3 58 58 NNW 18 30 30.21 1023 10 16 N/A
11:54 am 11:54 Mostly Sunny 65 18.3 48 8.9 54 54 N 21 33 30.23 1024 10 16 N/A
12:54 pm 12:54 Mostly Sunny 65 18.3 47 8.3 52 52 N 24 39 30.24 1024 10 16 N/A
1:54 pm 13:54 Sunny 66 18.9 45 7.2 47 47 NNW 14 22 30.25 1025 10 16 N/A
2:54 pm 14:54 Sunny 66 18.9 44 6.7 45 45 NNW 18 30 30.26 1025 10 16 N/A
3:54 pm 15:54 Sunny 66 18.9 44 6.7 45 45 N 16 26 30.25 1025 10 16 N/A
4:54 pm 16:54 Sunny 66 18.9 45 7.2 47 47 NNE 10 17 30.26 1025 10 16 N/A
5:54 pm 17:54 Sunny 65 18.3 45 7.2 49 49 N 13 20 30.27 1025 10 16 N/A
6:54 pm 18:54 Sunny 61 16.1 44 6.7 54 54 N 14 22 30.29 1026 10 16 N/A
7:54 pm 19:54 Clear 54 12.2 45 7.2 72 72 N 8 13 30.30 1026 10 16 N/A
8:54 pm 20:54 Clear 53 11.7 45 7.2 74 74 NNE 9 15 30.33 1027 10 16 N/A
9:54 pm 21:54 Clear 51 10.6 44 6.7 77 77 NNE 8 13 30.35 1028 10 16 N/A
10:54 pm 22:54 Clear 50 10 44 6.7 80 80 N 6 9 30.35 1028 10 16 N/A
11:54 pm 23:54 Clear 47 8.3 43 6.1 86 86 N 5 7 30.35 1028 10 16 N/A

Powered by AerisWeather